Time,TemperatureF,DewpointF,PressureIn,WindDirection,WindDirectionDegrees,WindSpeedMPH,WindSpeedGustMPH,Humidity,HourlyPrecipIn,Conditions,Clouds,dailyrainin,SoftwareType,DateUTC
2013-01-18 00:02:00,40.5,4.6,30.12,SSW,202,6.0,9.0,22,0.00,,,0.00,Wunderground v.1.15,2013-01-18 07:02:00,
2013-01-18 00:08:00,40.6,3.6,30.12,WSW,248,6.0,13.0,21,0.00,,,0.00,Wunderground v.1.15,2013-01-18 07:08:00,
2013-01-18 00:13:00,41.1,4.1,30.12,WSW,258,10.0,13.0,21,0.00,,,0.00,Wunderground v.1.15,2013-01-18 07:13:00,
2013-01-18 00:18:00,40.9,3.9,30.10,WSW,256,8.0,13.0,21,0.00,,,0.00,Wunderground v.1.15,2013-01-18 07:18:00,
2013-01-18 00:23:00,40.2,4.3,30.10,WSW,253,1.0,16.0,22,0.00,,,0.00,Wunderground v.1.15,2013-01-18 07:23:00,
2013-01-18 00:28:00,39.9,4.1,30.10,West,261,6.0,16.0,22,0.00,,,0.00,Wunderground v.1.15,2013-01-18 07:28:00,
2013-01-18 00:34:00,39.6,3.8,30.11,West,260,7.0,8.0,22,0.00,,,0.00,Wunderground v.1.15,2013-01-18 07:34:00,
2013-01-18 00:39:00,39.9,4.1,30.11,West,272,6.0,11.0,22,0.00,,,0.00,Wunderground v.1.15,2013-01-18 07:39:00,
2013-01-18 00:44:00,40.1,4.2,30.11,West,265,1.0,7.0,22,0.00,,,0.00,Wunderground v.1.15,2013-01-18 07:44:00,
2013-01-18 00:49:00,40.1,4.2,30.10,West,268,4.0,13.0,22,0.00,,,0.00,Wunderground v.1.15,2013-01-18 07:49:00,
2013-01-18 00:55:00,40.3,4.4,30.10,SW,236,4.0,11.0,22,0.00,,,0.00,Wunderground v.1.15,2013-01-18 07:55:00,
2013-01-18 01:00:00,40.5,3.6,30.10,WSW,258,9.0,9.0,21,0.00,,,0.00,Wunderground v.1.15,2013-01-18 08:00:00,
2013-01-18 01:06:00,40.6,3.6,30.09,West,278,4.0,11.0,21,0.00,,,0.00,Wunderground v.1.15,2013-01-18 08:06:00,
2013-01-18 01:11:00,40.5,3.6,30.09,West,261,8.0,9.0,21,0.00,,,0.00,Wunderground v.1.15,2013-01-18 08:11:00,
2013-01-18 01:16:00,40.5,4.6,30.09,West,270,7.0,9.0,22,0.00,,,0.00,Wunderground v.1.15,2013-01-18 08:16:00,
2013-01-18 01:22:00,40.6,4.7,30.09,WSW,253,6.0,10.0,22,0.00,,,0.00,Wunderground v.1.15,2013-01-18 08:22:00,
2013-01-18 01:27:00,40.6,3.6,30.09,WSW,239,11.0,14.0,21,0.00,,,0.00,Wunderground v.1.15,2013-01-18 08:27:00,
2013-01-18 01:32:00,40.5,3.6,30.10,West,268,7.0,13.0,21,0.00,,,0.00,Wunderground v.1.15,2013-01-18 08:32:00,
2013-01-18 01:38:00,40.1,4.2,30.10,WSW,246,7.0,13.0,22,0.00,,,0.00,Wunderground v.1.15,2013-01-18 08:38:00,
2013-01-18 01:43:00,39.8,4.0,30.10,SW,215,9.0,10.0,22,0.00,,,0.00,Wunderground v.1.15,2013-01-18 08:43:00,
2013-01-18 01:48:00,39.8,4.0,30.09,WSW,241,4.0,10.0,22,0.00,,,0.00,Wunderground v.1.15,2013-01-18 08:48:00,
2013-01-18 01:53:00,39.6,3.8,30.09,SW,234,8.0,9.0,22,0.00,,,0.00,Wunderground v.1.15,2013-01-18 08:53:00,
2013-01-18 01:58:00,39.5,3.7,30.09,SW,233,9.0,11.0,22,0.00,,,0.00,Wunderground v.1.15,2013-01-18 08:58:00,
2013-01-18 02:03:00,39.5,3.7,30.09,West,272,8.0,11.0,22,0.00,,,0.00,Wunderground v.1.15,2013-01-18 09:03:00,
2013-01-18 02:08:00,39.6,3.8,30.09,SW,220,11.0,11.0,22,0.00,,,0.00,Wunderground v.1.15,2013-01-18 09:08:00,
2013-01-18 02:13:00,39.6,3.8,30.09,WSW,244,14.0,14.0,22,0.00,,,0.00,Wunderground v.1.15,2013-01-18 09:13:00,
2013-01-18 02:19:00,40.2,4.3,30.10,WSW,256,6.0,14.0,22,0.00,,,0.00,Wunderground v.1.15,2013-01-18 09:19:00,
2013-01-18 02:24:00,40.5,4.6,30.10,West,278,2.0,14.0,22,0.00,,,0.00,Wunderground v.1.15,2013-01-18 09:24:00,
2013-01-18 02:29:00,40.5,4.6,30.10,WSW,244,13.0,14.0,22,0.00,,,0.00,Wunderground v.1.15,2013-01-18 09:29:00,
2013-01-18 02:34:00,40.5,4.6,30.09,WSW,240,13.0,18.0,22,0.00,,,0.00,Wunderground v.1.15,2013-01-18 09:34:00,
2013-01-18 02:39:00,40.2,4.3,30.09,West,267,4.0,18.0,22,0.00,,,0.00,Wunderground v.1.15,2013-01-18 09:39:00,
2013-01-18 02:44:00,40.1,4.2,30.09,SW,236,6.0,11.0,22,0.00,,,0.00,Wunderground v.1.15,2013-01-18 09:44:00,
2013-01-18 02:50:00,39.6,3.8,30.08,WSW,240,6.0,14.0,22,0.00,,,0.00,Wunderground v.1.15,2013-01-18 09:50:00,
2013-01-18 02:55:00,39.3,4.5,30.08,WSW,253,2.0,13.0,23,0.00,,,0.00,Wunderground v.1.15,2013-01-18 09:55:00,
2013-01-18 03:00:00,39.3,4.5,30.08,SW,220,2.0,6.0,23,0.00,,,0.00,Wunderground v.1.15,2013-01-18 10:00:00,
2013-01-18 03:05:00,39.2,4.4,30.08,WSW,257,15.0,20.0,23,0.00,,,0.00,Wunderground v.1.15,2013-01-18 10:05:00,
2013-01-18 03:10:00,38.8,4.1,30.08,SW,227,6.0,7.0,23,0.00,,,0.00,Wunderground v.1.15,2013-01-18 10:10:00,
2013-01-18 03:15:00,39.3,4.5,30.08,South,181,8.0,14.0,23,0.00,,,0.00,Wunderground v.1.15,2013-01-18 10:15:00,
2013-01-18 03:20:00,39.5,3.7,30.08,SW,215,4.0,10.0,22,0.00,,,0.00,Wunderground v.1.15,2013-01-18 10:20:00,
2013-01-18 03:25:00,39.2,4.4,30.08,SSW,202,8.0,15.0,23,0.00,,,0.00,Wunderground v.1.15,2013-01-18 10:25:00,
2013-01-18 03:30:00,39.5,4.7,30.08,WSW,239,8.0,11.0,23,0.00,,,0.00,Wunderground v.1.15,2013-01-18 10:30:00,
2013-01-18 03:36:00,39.5,4.7,30.08,WSW,251,8.0,13.0,23,0.00,,,0.00,Wunderground v.1.15,2013-01-18 10:36:00,
2013-01-18 03:41:00,39.9,4.1,30.08,WSW,253,18.0,18.0,22,0.00,,,0.00,Wunderground v.1.15,2013-01-18 10:41:00,
2013-01-18 03:46:00,40.2,4.3,30.08,SSW,198,9.0,20.0,22,0.00,,,0.00,Wunderground v.1.15,2013-01-18 10:46:00,
2013-01-18 03:51:00,40.2,3.3,30.07,WSW,239,8.0,9.0,21,0.00,,,0.00,Wunderground v.1.15,2013-01-18 10:51:00,
2013-01-18 03:56:00,40.3,3.4,30.07,West,265,7.0,17.0,21,0.00,,,0.00,Wunderground v.1.15,2013-01-18 10:56:00,
2013-01-18 04:01:00,40.3,3.4,30.07,SW,236,14.0,14.0,21,0.00,,,0.00,Wunderground v.1.15,2013-01-18 11:01:00,
2013-01-18 04:06:00,40.2,3.3,30.06,SSW,209,4.0,14.0,21,0.00,,,0.00,Wunderground v.1.15,2013-01-18 11:06:00,
2013-01-18 04:12:00,40.2,3.3,30.06,SW,224,15.0,18.0,21,0.00,,,0.00,Wunderground v.1.15,2013-01-18 11:12:00,
2013-01-18 04:17:00,40.2,3.3,30.06,West,265,10.0,18.0,21,0.00,,,0.00,Wunderground v.1.15,2013-01-18 11:17:00,
2013-01-18 04:22:00,40.3,3.4,30.06,WSW,246,8.0,13.0,21,0.00,,,0.00,Wunderground v.1.15,2013-01-18 11:22:00,
2013-01-18 04:27:00,40.6,3.6,30.06,SW,233,10.0,16.0,21,0.00,,,0.00,Wunderground v.1.15,2013-01-18 11:27:00,
2013-01-18 04:32:00,40.6,2.6,30.05,WSW,246,7.0,10.0,20,0.00,,,0.00,Wunderground v.1.15,2013-01-18 11:32:00,
2013-01-18 04:37:00,41.1,3.0,30.05,SSE,161,11.0,15.0,20,0.00,,,0.00,Wunderground v.1.15,2013-01-18 11:37:00,
2013-01-18 04:42:00,41.1,3.0,30.05,West,275,2.0,10.0,20,0.00,,,0.00,Wunderground v.1.15,2013-01-18 11:42:00,
2013-01-18 04:47:00,40.9,2.8,30.05,WSW,241,6.0,15.0,20,0.00,,,0.00,Wunderground v.1.15,2013-01-18 11:47:00,
2013-01-18 04:52:00,40.8,2.7,30.05,SW,230,6.0,13.0,20,0.00,,,0.00,Wunderground v.1.15,2013-01-18 11:52:00,
2013-01-18 04:58:00,40.1,3.2,30.05,WSW,246,9.0,15.0,21,0.00,,,0.00,Wunderground v.1.15,2013-01-18 11:58:00,
2013-01-18 05:03:00,40.6,2.6,30.06,WSW,244,4.0,17.0,20,0.00,,,0.00,Wunderground v.1.15,2013-01-18 12:03:00,
2013-01-18 05:08:00,40.3,3.4,30.06,WSW,251,7.0,17.0,21,0.00,,,0.00,Wunderground v.1.15,2013-01-18 12:08:00,
2013-01-18 05:13:00,40.3,3.4,30.06,West,267,8.0,13.0,21,0.00,,,0.00,Wunderground v.1.15,2013-01-18 12:13:00,
2013-01-18 05:18:00,40.1,3.2,30.08,SW,234,2.0,15.0,21,0.00,,,0.00,Wunderground v.1.15,2013-01-18 12:18:00,
2013-01-18 05:23:00,39.9,3.1,30.08,West,267,2.0,11.0,21,0.00,,,0.00,Wunderground v.1.15,2013-01-18 12:23:00,
2013-01-18 05:29:00,39.8,3.0,30.08,WSW,247,6.0,13.0,21,0.00,,,0.00,Wunderground v.1.15,2013-01-18 12:29:00,
2013-01-18 05:34:00,39.5,2.7,30.07,SW,230,11.0,11.0,21,0.00,,,0.00,Wunderground v.1.15,2013-01-18 12:34:00,
2013-01-18 05:39:00,39.5,2.7,30.07,West,275,15.0,15.0,21,0.00,,,0.00,Wunderground v.1.15,2013-01-18 12:39:00,
2013-01-18 05:44:00,39.6,2.8,30.07,West,268,2.0,14.0,21,0.00,,,0.00,Wunderground v.1.15,2013-01-18 12:44:00,
2013-01-18 05:49:00,39.8,3.0,30.06,West,275,9.0,15.0,21,0.00,,,0.00,Wunderground v.1.15,2013-01-18 12:49:00,
2013-01-18 05:54:00,40.2,3.3,30.06,WSW,239,9.0,15.0,21,0.00,,,0.00,Wunderground v.1.15,2013-01-18 12:54:00,
2013-01-18 05:59:00,40.3,3.4,30.06,WSW,244,14.0,21.0,21,0.00,,,0.00,Wunderground v.1.15,2013-01-18 12:59:00,
2013-01-18 06:04:00,40.3,3.4,30.06,West,280,10.0,13.0,21,0.00,,,0.00,Wunderground v.1.15,2013-01-18 13:04:00,
2013-01-18 06:10:00,39.9,3.1,30.06,WSW,241,11.0,14.0,21,0.00,,,0.00,Wunderground v.1.15,2013-01-18 13:10:00,
2013-01-18 06:15:00,40.1,3.2,30.06,West,267,9.0,11.0,21,0.00,,,0.00,Wunderground v.1.15,2013-01-18 13:15:00,
2013-01-18 06:20:00,39.9,3.1,30.06,West,264,13.0,20.0,21,0.00,,,0.00,Wunderground v.1.15,2013-01-18 13:20:00,
2013-01-18 06:25:00,39.9,3.1,30.06,WSW,237,8.0,20.0,21,0.00,,,0.00,Wunderground v.1.15,2013-01-18 13:25:00,
2013-01-18 06:30:00,39.8,3.0,30.06,SW,224,17.0,17.0,21,0.00,,,0.00,Wunderground v.1.15,2013-01-18 13:30:00,
2013-01-18 06:35:00,39.8,3.0,30.05,SW,229,13.0,17.0,21,0.00,,,0.00,Wunderground v.1.15,2013-01-18 13:35:00,
2013-01-18 06:41:00,39.8,3.0,30.05,SW,229,7.0,10.0,21,0.00,,,0.00,Wunderground v.1.15,2013-01-18 13:41:00,
2013-01-18 06:46:00,39.8,3.0,30.05,West,265,20.0,20.0,21,0.00,,,0.00,Wunderground v.1.15,2013-01-18 13:46:00,
2013-01-18 06:51:00,40.1,2.2,30.05,SW,230,7.0,10.0,20,0.00,,,0.00,Wunderground v.1.15,2013-01-18 13:51:00,
2013-01-18 06:56:00,40.2,2.2,30.05,West,263,8.0,13.0,20,0.00,,,0.00,Wunderground v.1.15,2013-01-18 13:56:00,
2013-01-18 07:01:00,40.2,2.2,30.05,SW,215,9.0,13.0,20,0.00,,,0.00,Wunderground v.1.15,2013-01-18 14:01:00,
2013-01-18 07:06:00,39.6,1.7,30.05,SSW,195,8.0,13.0,20,0.00,,,0.00,Wunderground v.1.15,2013-01-18 14:06:00,
2013-01-18 07:11:00,39.6,1.7,30.05,SSW,213,7.0,11.0,20,0.00,,,0.00,Wunderground v.1.15,2013-01-18 14:11:00,
2013-01-18 07:17:00,39.8,1.9,30.06,WSW,244,11.0,11.0,20,0.00,,,0.00,Wunderground v.1.15,2013-01-18 14:17:00,
2013-01-18 07:22:00,38.9,1.2,30.06,WSW,248,10.0,15.0,20,0.00,,,0.00,Wunderground v.1.15,2013-01-18 14:22:00,
2013-01-18 07:27:00,39.5,1.7,30.06,WSW,246,4.0,15.0,20,0.00,,,0.00,Wunderground v.1.15,2013-01-18 14:27:00,
2013-01-18 07:32:00,39.6,1.7,30.06,SW,232,6.0,9.0,20,0.00,,,0.00,Wunderground v.1.15,2013-01-18 14:32:00,
2013-01-18 07:37:00,39.8,1.9,30.06,WSW,239,10.0,21.0,20,0.00,,,0.00,Wunderground v.1.15,2013-01-18 14:37:00,
2013-01-18 07:43:00,39.5,1.7,30.06,WSW,240,9.0,13.0,20,0.00,,,0.00,Wunderground v.1.15,2013-01-18 14:43:00,
2013-01-18 07:48:00,39.3,1.5,30.06,WSW,244,10.0,17.0,20,0.00,,,0.00,Wunderground v.1.15,2013-01-18 14:48:00,
2013-01-18 07:53:00,39.5,1.7,30.06,WSW,246,4.0,16.0,20,0.00,,,0.00,Wunderground v.1.15,2013-01-18 14:53:00,
2013-01-18 07:58:00,39.8,1.9,30.06,SSW,208,9.0,16.0,20,0.00,,,0.00,Wunderground v.1.15,2013-01-18 14:58:00,
2013-01-18 08:03:00,39.8,1.9,30.07,WNW,288,8.0,13.0,20,0.00,,,0.00,Wunderground v.1.15,2013-01-18 15:03:00,
2013-01-18 08:08:00,40.2,1.1,30.07,West,263,11.0,13.0,19,0.00,,,0.00,Wunderground v.1.15,2013-01-18 15:08:00,
2013-01-18 08:13:00,40.3,1.2,30.07,West,281,9.0,13.0,19,0.00,,,0.00,Wunderground v.1.15,2013-01-18 15:13:00,
2013-01-18 08:19:00,40.6,1.5,30.07,WSW,244,6.0,13.0,19,0.00,,,0.00,Wunderground v.1.15,2013-01-18 15:19:00,
2013-01-18 08:24:00,40.1,1.1,30.07,SW,217,4.0,16.0,19,0.00,,,0.00,Wunderground v.1.15,2013-01-18 15:24:00,
2013-01-18 08:29:00,40.1,2.2,30.07,West,263,13.0,16.0,20,0.00,,,0.00,Wunderground v.1.15,2013-01-18 15:29:00,
2013-01-18 08:34:00,40.1,2.2,30.08,West,275,14.0,14.0,20,0.00,,,0.00,Wunderground v.1.15,2013-01-18 15:34:00,
2013-01-18 08:40:00,40.3,2.3,30.08,West,260,4.0,18.0,20,0.00,,,0.00,Wunderground v.1.15,2013-01-18 15:40:00,
2013-01-18 08:45:00,40.6,1.5,30.08,WSW,241,7.0,16.0,19,0.00,,,0.00,Wunderground v.1.15,2013-01-18 15:45:00,
2013-01-18 08:50:00,40.5,1.4,30.08,WSW,243,9.0,9.0,19,0.00,,,0.00,Wunderground v.1.15,2013-01-18 15:50:00,
2013-01-18 08:55:00,40.8,1.6,30.08,WSW,251,6.0,16.0,19,0.00,,,0.00,Wunderground v.1.15,2013-01-18 15:55:00,
2013-01-18 09:00:00,41.5,2.2,30.08,WSW,248,8.0,13.0,19,0.00,,,0.00,Wunderground v.1.15,2013-01-18 16:00:00,
2013-01-18 09:05:00,41.5,2.2,30.07,WNW,289,10.0,15.0,19,0.00,,,0.00,Wunderground v.1.15,2013-01-18 16:05:00,
2013-01-18 09:11:00,41.6,2.3,30.07,WSW,237,6.0,10.0,19,0.00,,,0.00,Wunderground v.1.15,2013-01-18 16:11:00,
2013-01-18 09:16:00,41.9,2.6,30.07,SW,219,6.0,17.0,19,0.00,,,0.00,Wunderground v.1.15,2013-01-18 16:16:00,
2013-01-18 09:21:00,41.9,2.6,30.07,WSW,257,7.0,14.0,19,0.00,,,0.00,Wunderground v.1.15,2013-01-18 16:21:00,
2013-01-18 09:26:00,41.9,2.6,30.07,WSW,237,10.0,20.0,19,0.00,,,0.00,Wunderground v.1.15,2013-01-18 16:26:00,
2013-01-18 09:32:00,42.3,2.9,30.07,WSW,254,13.0,13.0,19,0.00,,,0.00,Wunderground v.1.15,2013-01-18 16:32:00,
2013-01-18 09:37:00,42.3,1.7,30.07,WSW,247,11.0,13.0,18,0.00,,,0.00,Wunderground v.1.15,2013-01-18 16:37:00,
2013-01-18 09:42:00,42.3,1.7,30.07,SSW,196,14.0,14.0,18,0.00,,,0.00,Wunderground v.1.15,2013-01-18 16:42:00,
2013-01-18 09:47:00,42.2,1.6,30.07,WSW,241,8.0,17.0,18,0.00,,,0.00,Wunderground v.1.15,2013-01-18 16:47:00,
2013-01-18 09:52:00,42.5,3.1,30.07,WSW,241,7.0,10.0,19,0.00,,,0.00,Wunderground v.1.15,2013-01-18 16:52:00,
2013-01-18 09:57:00,42.8,3.3,30.07,West,271,13.0,13.0,19,0.00,,,0.00,Wunderground v.1.15,2013-01-18 16:57:00,
2013-01-18 10:02:00,43.2,3.6,30.06,SW,226,11.0,11.0,19,0.00,,,0.00,Wunderground v.1.15,2013-01-18 17:02:00,
2013-01-18 10:07:00,43.8,4.1,30.06,SW,232,9.0,14.0,19,0.00,,,0.00,Wunderground v.1.15,2013-01-18 17:07:00,
2013-01-18 10:13:00,43.6,4.0,30.06,WSW,241,6.0,14.0,19,0.00,,,0.00,Wunderground v.1.15,2013-01-18 17:13:00,
2013-01-18 10:18:00,43.2,3.6,30.06,SW,219,6.0,14.0,19,0.00,,,0.00,Wunderground v.1.15,2013-01-18 17:18:00,
2013-01-18 10:23:00,43.5,2.7,30.06,SSW,202,10.0,21.0,18,0.00,,,0.00,Wunderground v.1.15,2013-01-18 17:23:00,
2013-01-18 10:28:00,43.5,2.7,30.06,WSW,237,8.0,21.0,18,0.00,,,0.00,Wunderground v.1.15,2013-01-18 17:28:00,
2013-01-18 10:33:00,43.9,3.0,30.05,WSW,246,10.0,11.0,18,0.00,,,0.00,Wunderground v.1.15,2013-01-18 17:33:00,
2013-01-18 10:39:00,44.3,3.4,30.05,SW,224,10.0,18.0,18,0.00,,,0.00,Wunderground v.1.15,2013-01-18 17:39:00,
2013-01-18 10:44:00,44.8,2.6,30.05,WSW,240,18.0,18.0,17,0.00,,,0.00,Wunderground v.1.15,2013-01-18 17:44:00,
2013-01-18 10:49:00,45.1,2.8,30.03,WSW,246,9.0,18.0,17,0.00,,,0.00,Wunderground v.1.15,2013-01-18 17:49:00,
2013-01-18 10:54:00,45.2,2.9,30.03,SSW,213,16.0,16.0,17,0.00,,,0.00,Wunderground v.1.15,2013-01-18 17:54:00,
2013-01-18 10:59:00,45.2,2.9,30.03,WSW,247,10.0,16.0,17,0.00,,,0.00,Wunderground v.1.15,2013-01-18 17:59:00,
2013-01-18 11:04:00,45.7,3.3,30.01,WSW,248,10.0,16.0,17,0.00,,,0.00,Wunderground v.1.15,2013-01-18 18:04:00,
2013-01-18 11:09:00,45.2,2.9,30.01,SSW,209,10.0,18.0,17,0.00,,,0.00,Wunderground v.1.15,2013-01-18 18:09:00,
2013-01-18 11:14:00,45.2,2.9,30.01,SSW,202,14.0,14.0,17,0.00,,,0.00,Wunderground v.1.15,2013-01-18 18:14:00,
2013-01-18 11:19:00,45.5,3.1,30.02,WSW,253,13.0,21.0,17,0.00,,,0.00,Wunderground v.1.15,2013-01-18 18:19:00,
2013-01-18 11:24:00,45.7,3.3,30.02,West,275,10.0,20.0,17,0.00,,,0.00,Wunderground v.1.15,2013-01-18 18:24:00,
2013-01-18 11:29:00,46.0,3.5,30.02,WSW,239,10.0,20.0,17,0.00,,,0.00,Wunderground v.1.15,2013-01-18 18:29:00,
2013-01-18 11:34:00,46.1,3.6,30.00,WSW,237,13.0,17.0,17,0.00,,,0.00,Wunderground v.1.15,2013-01-18 18:34:00,
2013-01-18 11:39:00,45.8,3.4,30.00,WSW,251,9.0,23.0,17,0.00,,,0.00,Wunderground v.1.15,2013-01-18 18:39:00,
2013-01-18 11:44:00,45.7,3.3,30.00,SSW,210,11.0,16.0,17,0.00,,,0.00,Wunderground v.1.15,2013-01-18 18:44:00,
2013-01-18 11:50:00,46.0,3.5,30.00,WSW,244,13.0,18.0,17,0.00,,,0.00,Wunderground v.1.15,2013-01-18 18:50:00,
2013-01-18 11:55:00,46.2,3.7,30.00,SW,236,6.0,15.0,17,0.00,,,0.00,Wunderground v.1.15,2013-01-18 18:55:00,
2013-01-18 12:00:00,46.5,3.9,30.00,WNW,291,15.0,15.0,17,0.00,,,0.00,Wunderground v.1.15,2013-01-18 19:00:00,
2013-01-18 12:05:00,46.2,3.7,29.98,West,263,11.0,17.0,17,0.00,,,0.00,Wunderground v.1.15,2013-01-18 19:05:00,
2013-01-18 12:10:00,46.4,3.9,29.98,WSW,257,7.0,11.0,17,0.00,,,0.00,Wunderground v.1.15,2013-01-18 19:10:00,
2013-01-18 12:15:00,46.7,4.1,29.98,SSW,210,9.0,21.0,17,0.00,,,0.00,Wunderground v.1.15,2013-01-18 19:15:00,
2013-01-18 12:21:00,46.8,4.2,29.97,SSW,212,4.0,12.0,17,0.00,,,0.00,Wunderground v.1.15,2013-01-18 19:21:00,
2013-01-18 12:26:00,46.7,4.1,29.97,WSW,257,14.0,20.0,17,0.00,,,0.00,Wunderground v.1.15,2013-01-18 19:26:00,
2013-01-18 12:31:00,46.8,4.2,29.97,WNW,294,16.0,16.0,17,0.00,,,0.00,Wunderground v.1.15,2013-01-18 19:31:00,
2013-01-18 12:36:00,47.3,4.6,29.96,SW,222,4.0,16.0,17,0.00,,,0.00,Wunderground v.1.15,2013-01-18 19:36:00,
2013-01-18 12:41:00,47.0,4.4,29.96,West,263,7.0,18.0,17,0.00,,,0.00,Wunderground v.1.15,2013-01-18 19:41:00,
2013-01-18 12:46:00,47.6,4.9,29.96,SW,229,8.0,20.0,17,0.00,,,0.00,Wunderground v.1.15,2013-01-18 19:46:00,
2013-01-18 12:51:00,47.7,3.6,29.95,WNW,282,9.0,12.0,16,0.00,,,0.00,Wunderground v.1.15,2013-01-18 19:51:00,
2013-01-18 12:56:00,47.9,3.8,29.95,WNW,291,13.0,24.0,16,0.00,,,0.00,Wunderground v.1.15,2013-01-18 19:56:00,
2013-01-18 13:02:00,47.3,3.3,29.94,WSW,239,11.0,21.0,16,0.00,,,0.00,Wunderground v.1.15,2013-01-18 20:02:00,
2013-01-18 13:07:00,47.1,4.4,29.94,WSW,256,7.0,21.0,17,0.00,,,0.00,Wunderground v.1.15,2013-01-18 20:07:00,
2013-01-18 13:12:00,47.6,3.5,29.94,SSW,199,10.0,15.0,16,0.00,,,0.00,Wunderground v.1.15,2013-01-18 20:12:00,
2013-01-18 13:17:00,47.3,3.3,29.96,WSW,239,16.0,16.0,16,0.00,,,0.00,Wunderground v.1.15,2013-01-18 20:17:00,
2013-01-18 13:22:00,47.4,3.4,29.96,SW,227,9.0,21.0,16,0.00,,,0.00,Wunderground v.1.15,2013-01-18 20:22:00,
2013-01-18 13:27:00,47.0,3.0,29.96,West,271,9.0,21.0,16,0.00,,,0.00,Wunderground v.1.15,2013-01-18 20:27:00,
2013-01-18 13:32:00,47.4,3.4,29.96,WSW,247,13.0,17.0,16,0.00,,,0.00,Wunderground v.1.15,2013-01-18 20:32:00,
2013-01-18 13:37:00,47.6,4.9,29.96,WSW,237,10.0,17.0,17,0.00,,,0.00,Wunderground v.1.15,2013-01-18 20:37:00,
2013-01-18 13:43:00,48.0,3.9,29.96,SSW,203,8.0,18.0,16,0.00,,,0.00,Wunderground v.1.15,2013-01-18 20:43:00,
2013-01-18 13:48:00,48.0,3.9,29.94,WSW,243,10.0,18.0,16,0.00,,,0.00,Wunderground v.1.15,2013-01-18 20:48:00,
2013-01-18 13:53:00,47.9,3.8,29.94,West,277,9.0,16.0,16,0.00,,,0.00,Wunderground v.1.15,2013-01-18 20:53:00,
2013-01-18 13:58:00,47.4,3.4,29.94,SW,224,7.0,23.0,16,0.00,,,0.00,Wunderground v.1.15,2013-01-18 20:58:00,
2013-01-18 14:03:00,47.3,3.3,29.96,SW,224,8.0,14.0,16,0.00,,,0.00,Wunderground v.1.15,2013-01-18 21:03:00,
2013-01-18 14:08:00,47.0,4.4,29.96,WSW,243,9.0,24.0,17,0.00,,,0.00,Wunderground v.1.15,2013-01-18 21:08:00,
2013-01-18 14:14:00,46.8,4.2,29.96,WSW,250,14.0,15.0,17,0.00,,,0.00,Wunderground v.1.15,2013-01-18 21:14:00,
2013-01-18 14:19:00,46.7,4.1,29.96,SSW,208,9.0,15.0,17,0.00,,,0.00,Wunderground v.1.15,2013-01-18 21:19:00,
2013-01-18 14:24:00,46.8,5.4,29.96,WSW,248,8.0,13.0,18,0.00,,,0.00,Wunderground v.1.15,2013-01-18 21:24:00,
2013-01-18 14:29:00,47.1,5.7,29.96,WSW,247,6.0,15.0,18,0.00,,,0.00,Wunderground v.1.15,2013-01-18 21:29:00,
2013-01-18 14:34:00,47.1,4.4,29.95,WSW,253,8.0,17.0,17,0.00,,,0.00,Wunderground v.1.15,2013-01-18 21:34:00,
2013-01-18 14:39:00,46.7,4.1,29.95,WSW,247,7.0,21.0,17,0.00,,,0.00,Wunderground v.1.15,2013-01-18 21:39:00,
2013-01-18 14:45:00,46.5,3.9,29.95,West,260,10.0,16.0,17,0.00,,,0.00,Wunderground v.1.15,2013-01-18 21:45:00,
2013-01-18 14:50:00,46.5,5.2,29.95,West,263,13.0,17.0,18,0.00,,,0.00,Wunderground v.1.15,2013-01-18 21:50:00,
2013-01-18 14:55:00,46.5,5.2,29.95,WSW,243,16.0,22.0,18,0.00,,,0.00,Wunderground v.1.15,2013-01-18 21:55:00,
2013-01-18 15:00:00,46.7,5.4,29.95,SW,227,11.0,11.0,18,0.00,,,0.00,Wunderground v.1.15,2013-01-18 22:00:00,
2013-01-18 15:05:00,46.5,5.2,29.94,SW,234,23.0,24.0,18,0.00,,,0.00,Wunderground v.1.15,2013-01-18 22:05:00,
2013-01-18 15:10:00,46.5,5.2,29.94,West,267,13.0,13.0,18,0.00,,,0.00,Wunderground v.1.15,2013-01-18 22:10:00,
2013-01-18 15:15:00,46.8,5.4,29.94,West,274,15.0,17.0,18,0.00,,,0.00,Wunderground v.1.15,2013-01-18 22:15:00,
2013-01-18 15:20:00,46.8,5.4,29.94,WSW,251,11.0,11.0,18,0.00,,,0.00,Wunderground v.1.15,2013-01-18 22:20:00,
2013-01-18 15:26:00,46.7,5.4,29.94,WSW,248,8.0,20.0,18,0.00,,,0.00,Wunderground v.1.15,2013-01-18 22:26:00,
2013-01-18 15:31:00,46.2,6.1,29.94,WSW,246,17.0,17.0,19,0.00,,,0.00,Wunderground v.1.15,2013-01-18 22:31:00,
2013-01-18 15:36:00,46.4,6.3,29.94,WSW,237,7.0,22.0,19,0.00,,,0.00,Wunderground v.1.15,2013-01-18 22:36:00,
2013-01-18 15:41:00,47.1,5.7,29.94,West,278,9.0,12.0,18,0.00,,,0.00,Wunderground v.1.15,2013-01-18 22:41:00,
2013-01-18 15:46:00,47.3,5.9,29.94,WSW,243,6.0,20.0,18,0.00,,,0.00,Wunderground v.1.15,2013-01-18 22:46:00,
2013-01-18 15:51:00,47.1,5.7,29.94,SW,232,8.0,17.0,18,0.00,,,0.00,Wunderground v.1.15,2013-01-18 22:51:00,
2013-01-18 15:56:00,46.8,5.4,29.94,West,263,14.0,21.0,18,0.00,,,0.00,Wunderground v.1.15,2013-01-18 22:56:00,
2013-01-18 16:01:00,46.8,5.4,29.93,SSW,210,6.0,12.0,18,0.00,,,0.00,Wunderground v.1.15,2013-01-18 23:01:00,
2013-01-18 16:06:00,47.0,5.6,29.93,West,260,14.0,17.0,18,0.00,,,0.00,Wunderground v.1.15,2013-01-18 23:06:00,
2013-01-18 16:12:00,47.0,5.6,29.93,SW,233,13.0,21.0,18,0.00,,,0.00,Wunderground v.1.15,2013-01-18 23:12:00,
2013-01-18 16:17:00,47.1,5.7,29.93,West,264,16.0,23.0,18,0.00,,,0.00,Wunderground v.1.15,2013-01-18 23:17:00,
2013-01-18 16:22:00,47.3,5.9,29.93,WSW,248,6.0,13.0,18,0.00,,,0.00,Wunderground v.1.15,2013-01-18 23:22:00,
2013-01-18 16:27:00,47.3,5.9,29.93,SW,227,7.0,21.0,18,0.00,,,0.00,Wunderground v.1.15,2013-01-18 23:27:00,
2013-01-18 16:32:00,46.8,5.4,29.92,WSW,239,6.0,17.0,18,0.00,,,0.00,Wunderground v.1.15,2013-01-18 23:32:00,
2013-01-18 16:37:00,46.8,5.4,29.92,West,267,8.0,18.0,18,0.00,,,0.00,Wunderground v.1.15,2013-01-18 23:37:00,
2013-01-18 16:43:00,46.4,6.3,29.92,WSW,237,7.0,20.0,19,0.00,,,0.00,Wunderground v.1.15,2013-01-18 23:43:00,
2013-01-18 16:48:00,46.4,5.1,29.93,WSW,254,16.0,25.0,18,0.00,,,0.00,Wunderground v.1.15,2013-01-18 23:48:00,
2013-01-18 16:53:00,46.4,5.1,29.93,SW,219,11.0,16.0,18,0.00,,,0.00,Wunderground v.1.15,2013-01-18 23:53:00,
2013-01-18 16:58:00,46.0,6.0,29.93,WSW,257,6.0,16.0,19,0.00,,,0.00,Wunderground v.1.15,2013-01-18 23:58:00,
2013-01-18 17:03:00,45.5,5.6,29.93,WSW,253,7.0,10.0,19,0.00,,,0.00,Wunderground v.1.15,2013-01-19 00:03:00,
2013-01-18 17:08:00,45.7,5.7,29.93,WSW,247,11.0,26.0,19,0.00,,,0.00,Wunderground v.1.15,2013-01-19 00:08:00,
2013-01-18 17:14:00,45.7,5.7,29.93,WSW,258,11.0,14.0,19,0.00,,,0.00,Wunderground v.1.15,2013-01-19 00:14:00,
2013-01-18 17:19:00,45.7,5.7,29.94,WSW,257,13.0,17.0,19,0.00,,,0.00,Wunderground v.1.15,2013-01-19 00:19:00,
2013-01-18 17:24:00,45.7,5.7,29.94,West,264,10.0,15.0,19,0.00,,,0.00,Wunderground v.1.15,2013-01-19 00:24:00,
2013-01-18 17:29:00,45.5,6.7,29.94,WSW,240,8.0,21.0,20,0.00,,,0.00,Wunderground v.1.15,2013-01-19 00:29:00,
2013-01-18 17:34:00,45.4,6.6,29.95,WSW,257,9.0,15.0,20,0.00,,,0.00,Wunderground v.1.15,2013-01-19 00:34:00,
2013-01-18 17:39:00,45.2,6.4,29.95,WSW,256,15.0,20.0,20,0.00,,,0.00,Wunderground v.1.15,2013-01-19 00:39:00,
2013-01-18 17:44:00,44.9,6.2,29.95,WSW,239,2.0,14.0,20,0.00,,,0.00,Wunderground v.1.15,2013-01-19 00:44:00,
2013-01-18 17:49:00,44.9,6.2,29.95,West,260,6.0,14.0,20,0.00,,,0.00,Wunderground v.1.15,2013-01-19 00:49:00,
2013-01-18 17:54:00,43.9,5.3,29.95,WSW,256,8.0,9.0,20,0.00,,,0.00,Wunderground v.1.15,2013-01-19 00:54:00,
2013-01-18 18:00:00,42.6,7.3,29.95,WSW,246,10.0,14.0,23,0.00,,,0.00,Wunderground v.1.15,2013-01-19 01:00:00,
2013-01-18 18:05:00,42.6,6.3,29.97,WSW,237,4.0,14.0,22,0.00,,,0.00,Wunderground v.1.15,2013-01-19 01:05:00,
2013-01-18 18:10:00,42.6,7.3,29.97,WSW,251,16.0,16.0,23,0.00,,,0.00,Wunderground v.1.15,2013-01-19 01:10:00,
2013-01-18 18:15:00,43.3,6.9,29.97,WSW,246,9.0,16.0,22,0.00,,,0.00,Wunderground v.1.15,2013-01-19 01:15:00,
2013-01-18 18:20:00,42.5,7.2,29.97,SSW,206,9.0,9.0,23,0.00,,,0.00,Wunderground v.1.15,2013-01-19 01:20:00,
2013-01-18 18:25:00,42.1,6.9,29.97,SSW,202,9.0,16.0,23,0.00,,,0.00,Wunderground v.1.15,2013-01-19 01:25:00,
2013-01-18 18:30:00,42.6,6.3,29.97,SW,229,8.0,9.0,22,0.00,,,0.00,Wunderground v.1.15,2013-01-19 01:30:00,
2013-01-18 18:36:00,43.8,7.4,29.97,WSW,251,7.0,22.0,22,0.00,,,0.00,Wunderground v.1.15,2013-01-19 01:36:00,
2013-01-18 18:41:00,44.3,7.8,29.97,WSW,241,8.0,10.0,22,0.00,,,0.00,Wunderground v.1.15,2013-01-19 01:41:00,
2013-01-18 18:46:00,44.3,7.8,29.97,SSW,203,15.0,15.0,22,0.00,,,0.00,Wunderground v.1.15,2013-01-19 01:46:00,
2013-01-18 18:51:00,44.6,8.0,29.95,WSW,248,8.0,9.0,22,0.00,,,0.00,Wunderground v.1.15,2013-01-19 01:51:00,
2013-01-18 18:56:00,44.5,5.8,29.95,WSW,250,13.0,16.0,20,0.00,,,0.00,Wunderground v.1.15,2013-01-19 01:56:00,
2013-01-18 19:01:00,44.5,5.8,29.95,WSW,253,8.0,18.0,20,0.00,,,0.00,Wunderground v.1.15,2013-01-19 02:01:00,
2013-01-18 19:07:00,44.5,5.8,29.95,WSW,244,13.0,18.0,20,0.00,,,0.00,Wunderground v.1.15,2013-01-19 02:07:00,
2013-01-18 19:12:00,44.2,6.7,29.95,West,268,13.0,15.0,21,0.00,,,0.00,Wunderground v.1.15,2013-01-19 02:12:00,
2013-01-18 19:17:00,43.9,6.4,29.97,SSW,196,8.0,15.0,21,0.00,,,0.00,Wunderground v.1.15,2013-01-19 02:17:00,
2013-01-18 19:22:00,43.9,6.4,29.97,SW,233,13.0,13.0,21,0.00,,,0.00,Wunderground v.1.15,2013-01-19 02:22:00,
2013-01-18 19:27:00,44.1,6.6,29.97,South,189,8.0,22.0,21,0.00,,,0.00,Wunderground v.1.15,2013-01-19 02:27:00,
2013-01-18 19:33:00,43.8,6.3,29.96,SW,220,13.0,15.0,21,0.00,,,0.00,Wunderground v.1.15,2013-01-19 02:33:00,
2013-01-18 19:38:00,43.6,6.2,29.96,West,261,9.0,16.0,21,0.00,,,0.00,Wunderground v.1.15,2013-01-19 02:38:00,
2013-01-18 19:43:00,43.5,6.1,29.96,WSW,246,11.0,13.0,21,0.00,,,0.00,Wunderground v.1.15,2013-01-19 02:43:00,
2013-01-18 19:48:00,43.8,6.3,29.95,WSW,254,7.0,15.0,21,0.00,,,0.00,Wunderground v.1.15,2013-01-19 02:48:00,
2013-01-18 19:53:00,43.8,6.3,29.95,West,260,13.0,16.0,21,0.00,,,0.00,Wunderground v.1.15,2013-01-19 02:53:00,
2013-01-18 19:58:00,43.6,6.2,29.95,WSW,253,11.0,21.0,21,0.00,,,0.00,Wunderground v.1.15,2013-01-19 02:58:00,
2013-01-18 20:03:00,43.2,5.8,29.96,WSW,250,9.0,13.0,21,0.00,,,0.00,Wunderground v.1.15,2013-01-19 03:03:00,
2013-01-18 20:08:00,43.2,5.8,29.96,West,271,11.0,26.0,21,0.00,,,0.00,Wunderground v.1.15,2013-01-19 03:08:00,
2013-01-18 20:13:00,43.1,5.7,29.96,WSW,241,16.0,16.0,21,0.00,,,0.00,Wunderground v.1.15,2013-01-19 03:13:00,
2013-01-18 20:19:00,43.2,5.8,29.95,WSW,248,8.0,18.0,21,0.00,,,0.00,Wunderground v.1.15,2013-01-19 03:19:00,
2013-01-18 20:24:00,43.2,5.8,29.95,WNW,296,18.0,18.0,21,0.00,,,0.00,Wunderground v.1.15,2013-01-19 03:24:00,
2013-01-18 20:29:00,43.1,5.7,29.95,WSW,248,7.0,18.0,21,0.00,,,0.00,Wunderground v.1.15,2013-01-19 03:29:00,
2013-01-18 20:34:00,42.9,5.6,29.96,WSW,254,11.0,17.0,21,0.00,,,0.00,Wunderground v.1.15,2013-01-19 03:34:00,
2013-01-18 20:39:00,42.9,5.6,29.96,SW,230,6.0,17.0,21,0.00,,,0.00,Wunderground v.1.15,2013-01-19 03:39:00,
2013-01-18 20:44:00,43.1,5.7,29.96,West,280,6.0,16.0,21,0.00,,,0.00,Wunderground v.1.15,2013-01-19 03:44:00,
2013-01-18 20:49:00,43.2,5.8,29.96,West,272,18.0,18.0,21,0.00,,,0.00,Wunderground v.1.15,2013-01-19 03:49:00,
2013-01-18 20:54:00,43.3,5.9,29.96,SW,233,9.0,22.0,21,0.00,,,0.00,Wunderground v.1.15,2013-01-19 03:54:00,
2013-01-18 20:59:00,43.3,5.9,29.96,WSW,246,14.0,22.0,21,0.00,,,0.00,Wunderground v.1.15,2013-01-19 03:59:00,
2013-01-18 21:04:00,43.3,5.9,29.95,West,274,14.0,16.0,21,0.00,,,0.00,Wunderground v.1.15,2013-01-19 04:04:00,
2013-01-18 21:10:00,43.1,5.7,29.95,SW,233,9.0,11.0,21,0.00,,,0.00,Wunderground v.1.15,2013-01-19 04:10:00,
2013-01-18 21:15:00,42.9,5.6,29.95,WSW,237,8.0,11.0,21,0.00,,,0.00,Wunderground v.1.15,2013-01-19 04:15:00,
2013-01-18 21:20:00,42.8,5.5,29.95,WSW,250,16.0,16.0,21,0.00,,,0.00,Wunderground v.1.15,2013-01-19 04:20:00,
2013-01-18 21:25:00,43.2,5.8,29.95,WSW,257,16.0,24.0,21,0.00,,,0.00,Wunderground v.1.15,2013-01-19 04:25:00,
2013-01-18 21:30:00,43.3,4.8,29.95,West,281,4.0,11.0,20,0.00,,,0.00,Wunderground v.1.15,2013-01-19 04:30:00,
2013-01-18 21:35:00,43.2,4.8,29.96,West,264,7.0,14.0,20,0.00,,,0.00,Wunderground v.1.15,2013-01-19 04:35:00,
2013-01-18 21:41:00,43.2,4.8,29.96,West,270,7.0,10.0,20,0.00,,,0.00,Wunderground v.1.15,2013-01-19 04:41:00,
2013-01-18 21:46:00,43.2,5.8,29.96,West,272,4.0,11.0,21,0.00,,,0.00,Wunderground v.1.15,2013-01-19 04:46:00,
2013-01-18 21:51:00,43.2,5.8,29.96,WSW,254,7.0,10.0,21,0.00,,,0.00,Wunderground v.1.15,2013-01-19 04:51:00,
2013-01-18 21:56:00,43.3,4.8,29.96,West,267,7.0,25.0,20,0.00,,,0.00,Wunderground v.1.15,2013-01-19 04:56:00,
2013-01-18 22:00:00,43.3,4.8,29.96,WSW,243,7.0,25.0,20,0.00,,,0.00,Wunderground v.1.15,2013-01-19 05:00:00,
2013-01-18 22:03:00,43.2,5.8,29.96,WSW,256,16.0,16.0,21,0.00,,,0.00,Wunderground v.1.15,2013-01-19 05:03:00,
2013-01-18 22:07:00,43.1,5.7,29.96,SW,236,9.0,16.0,21,0.00,,,0.00,Wunderground v.1.15,2013-01-19 05:07:00,
2013-01-18 22:12:00,42.9,5.6,29.96,SSW,202,10.0,10.0,21,0.00,,,0.00,Wunderground v.1.15,2013-01-19 05:12:00,
2013-01-18 22:17:00,42.8,5.5,29.95,WSW,247,4.0,16.0,21,0.00,,,0.00,Wunderground v.1.15,2013-01-19 05:17:00,
2013-01-18 22:22:00,42.9,5.6,29.95,WSW,239,7.0,17.0,21,0.00,,,0.00,Wunderground v.1.15,2013-01-19 05:22:00,
2013-01-18 22:27:00,43.3,4.8,29.95,WNW,288,9.0,17.0,20,0.00,,,0.00,Wunderground v.1.15,2013-01-19 05:27:00,
2013-01-18 22:32:00,43.3,4.8,29.95,West,267,9.0,14.0,20,0.00,,,0.00,Wunderground v.1.15,2013-01-19 05:32:00,
2013-01-18 22:37:00,43.2,4.8,29.95,WSW,243,10.0,18.0,20,0.00,,,0.00,Wunderground v.1.15,2013-01-19 05:37:00,
2013-01-18 22:42:00,43.1,5.7,29.95,WSW,243,9.0,17.0,21,0.00,,,0.00,Wunderground v.1.15,2013-01-19 05:42:00,
2013-01-18 22:48:00,43.1,4.7,29.95,WSW,254,18.0,18.0,20,0.00,,,0.00,Wunderground v.1.15,2013-01-19 05:48:00,
2013-01-18 22:53:00,43.1,4.7,29.95,WSW,248,13.0,13.0,20,0.00,,,0.00,Wunderground v.1.15,2013-01-19 05:53:00,
2013-01-18 22:58:00,43.2,4.8,29.95,SW,222,9.0,15.0,20,0.00,,,0.00,Wunderground v.1.15,2013-01-19 05:58:00,
2013-01-18 23:03:00,43.1,4.7,29.96,WSW,237,7.0,15.0,20,0.00,,,0.00,Wunderground v.1.15,2013-01-19 06:03:00,
2013-01-18 23:08:00,42.9,4.5,29.96,WSW,253,4.0,18.0,20,0.00,,,0.00,Wunderground v.1.15,2013-01-19 06:08:00,
2013-01-18 23:13:00,43.3,4.8,29.96,WSW,246,9.0,20.0,20,0.00,,,0.00,Wunderground v.1.15,2013-01-19 06:13:00,
2013-01-18 23:18:00,43.3,4.8,29.95,SW,234,7.0,20.0,20,0.00,,,0.00,Wunderground v.1.15,2013-01-19 06:18:00,
2013-01-18 23:24:00,43.2,4.8,29.95,SW,232,14.0,14.0,20,0.00,,,0.00,Wunderground v.1.15,2013-01-19 06:24:00,
2013-01-18 23:29:00,42.9,4.5,29.95,SSW,192,6.0,16.0,20,0.00,,,0.00,Wunderground v.1.15,2013-01-19 06:29:00,
2013-01-18 23:34:00,42.8,4.4,29.96,WSW,243,7.0,20.0,20,0.00,,,0.00,Wunderground v.1.15,2013-01-19 06:34:00,
2013-01-18 23:39:00,42.6,4.3,29.96,SW,220,7.0,20.0,20,0.00,,,0.00,Wunderground v.1.15,2013-01-19 06:39:00,
2013-01-18 23:44:00,42.5,4.2,29.96,WSW,237,6.0,15.0,20,0.00,,,0.00,Wunderground v.1.15,2013-01-19 06:44:00,
2013-01-18 23:49:00,42.5,4.2,29.97,West,261,15.0,15.0,20,0.00,,,0.00,Wunderground v.1.15,2013-01-19 06:49:00,
2013-01-18 23:54:00,42.5,4.2,29.97,West,265,13.0,21.0,20,0.00,,,0.00,Wunderground v.1.15,2013-01-19 06:54:00,
2013-01-18 23:59:00,42.5,4.2,29.97,WSW,241,8.0,23.0,20,0.00,,,0.00,Wunderground v.1.15,2013-01-19 06:59:00,